Regional Weather Roundup
Issued by NWS

Home | Current Version | Previous Version | Graphics & Text | Print | Product List | Glossary On
Versions: 1 2 3 4 5 6 7 8 9 10 11 12 13 14 15 16 17 18 19 20 21 22 23 24 25 26 27 28 29 30 31 32 33 34 35 36 37 38 39 40 41 42 43 44 45 46 47 48 49 50
000
ASUS43 KDMX 041908
RWRIA

WEATHER ROUNDUP FOR IOWA
NATIONAL WEATHER SERVICE DES MOINES IA
200 PM CDT WED MAY 04 2016

NOTE: "FAIR" INDICATES FEW OR NO CLOUDS BELOW 12,000 FEET WITH NO
SIGNIFICANT WEATHER AND/OR OBSTRUCTIONS TO VISIBILITY.

* - THESE STATIONS ARE NOT NWS STATIONS...THUS NOT UNDER NWS
QUALITY CONTROL.  THEY ALSO DO NOT REPORT WEATHER SUCH
AS PRECIPITATION OR FOG.

IAZ001>003-012>014-020>022-031>034-043>046-042000-
   NORTHWEST IOWA

CITY           SKY/WX    TMP DP  RH WIND       PRES   REMARKS
CARROLL *      SUNNY     63  36  36 NW20G28   30.01F
CHEROKEE *     SUNNY     63  37  39 NW14G22   30.04S
DENISON *      SUNNY     63  36  36 N17G28    30.01F
LE MARS *      SUNNY     64  37  36 N14G21    30.06F
ORANGE CITY *  SUNNY     63  39  42 N12G21    30.05S
SHELDON *      SUNNY     64  36  34 NW16G28   30.03F
SIOUX CITY     SUNNY     68  39  34 N14G20    30.05F
SPENCER        SUNNY     63  35  35 N17       30.03F
STORM LAKE *     N/A     63  36  36 N18       30.03F
$$

IAZ055>058-069>071-079>083-090>094-042000-
   SOUTHWEST IOWA

CITY           SKY/WX    TMP DP  RH WIND       PRES   REMARKS
ATLANTIC *     SUNNY     63  37  39 N14G26    30.01F
AUDUBON *      SUNNY     63  36  36 N17G23    30.03F
CLARINDA *       N/A     66  39  37 MISG      30.02F
COUNCIL BLFS * SUNNY     64  41  42 NW12G25   30.04S
CRESTON *      SUNNY     63  36  36 N16G30    30.01S
HARLAN  *      SUNNY     64  34  32 NW22      30.05F
LAMONI         SUNNY     63  38  39 NW21G26   29.97F
RED OAK *      SUNNY     66  37  34 N15G21    30.02F
SHENANDOAH *   SUNNY     66  37  34 N15G23    30.03S
$$

IAZ047>049-059>061-072>074-084-042000-
   CENTRAL IOWA

CITY           SKY/WX    TMP DP  RH WIND       PRES   REMARKS
AMES           SUNNY     65  34  31 N18G26    29.97F
ANKENY *       SUNNY     64  34  32 N17       29.97S
BOONE *        SUNNY     63  36  36 N18G28    29.97F
CHARITON *     SUNNY     63  36  36 NW20G28   29.96F
DES MOINES     MOSUNNY   65  31  28 N21G28    29.97F
GRINNELL*      SUNNY     63  32  31 NW18G25   29.95S
KNOXVILLE *    SUNNY     63  34  34 N16G26    29.95S
MARSHALLTOWN   SUNNY     64  36  35 NW17G28   29.94F
NEWTON *       SUNNY     63  34  34 NW22      29.95F
PELLA *        SUNNY     63  32  31 N9G24     29.96
PERRY *          N/A     64  36  34 N17G23    29.99F
$$

IAZ004>006-015-016-023>025-035-036-042000-
   NORTH CENTRAL IOWA

CITY           SKY/WX    TMP DP  RH WIND       PRES   REMARKS
ALGONA *       SUNNY     63  32  31 N18G25    30.00F
CLARION *      SUNNY     63  30  29 NW17G29   29.97F
ESTHERVILLE    SUNNY     62  37  39 NW26G33   30.01F
FORT DODGE *   SUNNY     63  36  36 N12G23    30.00F
MASON CITY     SUNNY     64  34  32 N23G32    29.96F
FOREST CITY *  SUNNY     61  32  33 NW21G29   29.97F
WEBSTER CITY * SUNNY     64  32  29 N25G33    29.96F
IOWA FALLS *     N/A     64  30  27 NW23G32   29.96F
$$

IAZ007>011-017>019-026>030-037>042-050>054-066-042000-
   NORTHEAST IOWA

CITY           SKY/WX    TMP DP  RH WIND       PRES   REMARKS
CEDAR RAPIDS   SUNNY     62  36  37 N24G33    29.89F
CHARLES CITY * SUNNY     63  28  27 N25G36    29.93F
CLINTON *      CLOUDY    59  40  49 N20G26    29.86S
DECORAH *      MOSUNNY   59  32  36 N23G33    29.88F
DUBUQUE        MOSUNNY   58  36  43 N16G25    29.87R
MONTICELLO *   MOSUNNY   63  36  36 N21G31    29.88S
OELWEIN *      SUNNY     61  32  33 N17G35    29.91S
WATERLOO       SUNNY     63  33  32 N24G31    29.91F
$$

IAZ064-065-067-068-078-042000-
   EAST CENTRAL IOWA

CITY           SKY/WX    TMP DP  RH WIND       PRES   REMARKS
DAVENPORT      MOSUNNY   61  35  37 N22G33    29.87S
IOWA CITY      MOSUNNY   62  35  36 N16       29.91F
MT. PLEASANT * MOSUNNY   63  37  39 N23       29.90F
MUSCATINE *    MOSUNNY   63  36  36 N18G26    29.89F
QUAD CITIES    MOSUNNY   62  35  36 N14G25    29.85F
$$

IAZ062-063-075>077-085>089-095>099-042000-
   SOUTHEAST IOWA

CITY           SKY/WX    TMP DP  RH WIND       PRES   REMARKS
BURLINGTON     PTSUNNY   61  39  44 N18G26    29.88F
FAIRFIELD *    MOSUNNY   61  36  39 N20G29    29.92S
FORT MADISON * MOSUNNY   61  37  41 N17G25    29.90S
KEOKUK *       MOSUNNY   63  37  39 N15G25    29.89S
OSKALOOSA *      N/A     63  32  31 NW24G30   29.94S
OTTUMWA        SUNNY     62  36  37 NW17G30   29.94S
WASHINGTON *   MOSUNNY   63  36  36 N17G30    29.92S
$$

ABBREVIATIONS USED IN REMARKS
   TC - TEMPERATURES IN CELSIUS
  WCI - WIND CHILL INDEX
   HX - HEAT INDEX
  VSB - VISIBILITY
$$





USA.gov is the U.S. government's official web portal to all federal, state and local government web resources and services.